W1MDM-13 Weather Reports


Display with metric or nautical units.
time (UTC)temp
F
wind
direction
speed
MPH
gust
MPH
rain 1hr
in
rain 24hr
in
rain mn
in
humidity
%
barometer
mb
20260506155504 76 115 1.0 3.0 0.00 0.00 0.00 92 1011.6
20260506155004 76 118 1.0 4.0 0.00 0.00 0.00 92 1011.5
20260506154503 76 120 1.0 4.0 0.00 0.00 0.00 93 1011.5
20260506154003 76 120 1.0 4.0 0.00 0.00 0.00 92 1011.3
20260506153503 76 120 1.0 2.0 0.00 0.00 0.00 93 1011.1
20260506153003 76 120 1.0 3.0 0.00 0.00 0.00 94 1011.2
20260506152503 76 121 1.0 3.0 0.00 0.00 0.00 93 1011.0
20260506152003 75 122 1.0 3.0 0.00 0.00 0.00 94 1011.1
20260506151716 75 123 1.0 3.0 0.00 0.00 0.00 93 1011.0
20260506151004 75 124 1.0 3.0 0.00 0.00 0.00 94 1010.9
20260506150504 75 125 1.0 3.0 0.00 0.00 0.00 94 1010.7
20260506150004 75 125 1.0 2.0 0.00 0.00 0.00 94 1010.7
20260506145713 75 125 1.0 2.0 0.00 0.00 0.00 94 1010.8
20260506145003 75 126 1.0 3.0 0.00 0.00 0.00 94 1010.8
20260506144503 75 126 1.0 3.0 0.00 0.00 0.00 94 1010.8
20260506144003 75 126 1.0 3.0 0.00 0.00 0.00 94 1010.8
20260506143503 75 127 1.0 3.0 0.00 0.00 0.00 94 1010.8
20260506143004 75 128 1.0 3.0 0.00 0.00 0.00 94 1010.6
20260506142504 75 0 0.0 2.0 0.00 0.00 0.00 94 1010.5
20260506142003 75 0 0.0 3.0 0.00 0.00 0.00 94 1010.5
20260506141503 75 125 1.0 4.0 0.00 0.00 0.00 94 1010.2
20260506141003 75 126 1.0 4.0 0.00 0.00 0.00 94 1010.2
20260506140003 74 127 1.0 4.0 0.00 0.00 0.00 94 1010.1
20260506135503 74 129 1.0 4.0 0.00 0.00 0.00 94 1009.8
20260506135216 74 130 1.0 3.0 0.00 0.00 0.00 94 1009.7
20260506134504 74 120 1.0 4.0 0.00 0.00 0.00 95 1009.5
20260506134004 74 106 2.0 7.0 0.00 0.00 0.00 95 1009.6
20260506133503 74 111 3.0 7.0 0.00 0.00 0.00 95 1009.5
20260506133003 74 122 3.0 6.0 0.00 0.00 0.00 95 1009.4
20260506132716 74 125 2.0 5.0 0.00 0.00 0.00 95 1009.4
20260506132214 74 128 2.0 5.0 0.00 0.00 0.00 95 1009.3
20260506131503 74 133 1.0 4.0 0.00 0.00 0.00 95 1009.3
20260506131215 74 133 2.0 4.0 0.00 0.00 0.00 95 1009.3
20260506130504 74 135 1.0 3.0 0.00 0.00 0.00 95 1009.1
20260506130004 74 135 1.0 3.0 0.00 0.00 0.00 95 1009.2
20260506125714 74 136 1.0 3.0 0.00 0.00 0.00 95 1009.1
20260506125003 74 136 1.0 4.0 0.00 0.00 0.00 95 1009.1
20260506124503 74 137 1.0 4.0 0.00 0.00 0.00 95 1009.2
20260506124003 74 137 1.0 4.0 0.00 0.00 0.00 95 1009.3
20260506123503 74 137 1.0 2.0 0.00 0.00 0.00 94 1009.2
20260506123003 74 137 1.0 3.0 0.00 0.00 0.00 94 1009.3
20260506122504 74 0 0.0 3.0 0.00 0.00 0.00 94 1009.3
20260506122215 74 0 0.0 3.0 0.00 0.00 0.00 94 1009.3
20260506121503 74 137 1.0 3.0 0.00 0.00 0.00 94 1009.3
20260506121003 74 137 1.0 3.0 0.00 0.00 0.00 94 1009.2
20260506120503 74 137 1.0 3.0 0.00 0.00 0.00 94 1009.1
20260506120003 74 138 1.0 4.0 0.00 0.00 0.00 94 1009.2
20260506115715 74 137 1.0 4.0 0.00 0.00 0.00 94 1009.1
20260506115212 74 137 1.0 3.0 0.00 0.00 0.00 94 1009.1
20260506114503 74 137 1.0 3.0 0.00 0.00 0.00 94 1009.0
20260506114003 74 137 2.0 3.0 0.00 0.00 0.00 94 1009.0
20260506113504 74 137 1.0 3.0 0.00 0.00 0.00 94 1009.0
20260506113004 74 0 0.0 2.0 0.00 0.00 0.00 94 1009.0
20260506112504 74 0 0.0 2.0 0.00 0.00 0.00 94 1009.0
20260506112003 74 137 1.0 3.0 0.00 0.00 0.00 94 1008.9
20260506111505 74 137 1.0 3.0 0.00 0.00 0.00 93 1009.0
20260506111003 74 137 1.0 4.0 0.00 0.00 0.00 93 1009.0
20260506110503 74 137 2.0 4.0 0.00 0.00 0.00 93 1009.0
20260506110003 74 143 2.0 5.0 0.00 0.00 0.00 93 1009.0
20260506105004 74 172 1.0 5.0 0.00 0.00 0.00 93 1008.9
20260506104504 75 172 1.0 5.0 0.00 0.00 0.00 93 1008.8
20260506104003 75 172 1.0 3.0 0.00 0.00 0.00 93 1008.9
20260506103503 75 172 1.0 5.0 0.00 0.00 0.00 93 1008.9
20260506103215 75 172 1.0 5.0 0.00 0.00 0.00 93 1008.9
20260506102503 75 168 2.0 7.0 0.00 0.00 0.00 93 1008.8
20260506102003 75 165 2.0 8.0 0.00 0.00 0.00 93 1008.9
20260506101503 75 164 2.0 8.0 0.00 0.00 0.00 93 1009.0
20260506101217 75 166 2.0 8.0 0.00 0.00 0.00 93 1008.9
20260506100504 75 182 2.0 5.0 0.00 0.00 0.00 93 1008.8
20260506095003 75 168 3.0 8.0 0.00 0.00 0.00 93 1008.6
20260506094503 75 181 2.0 8.0 0.00 0.00 0.00 93 1008.7
20260506094003 75 198 2.0 7.0 0.00 0.00 0.00 92 1008.7
20260506093503 75 183 2.0 7.0 0.00 0.00 0.00 92 1008.7
20260506093004 75 175 3.0 9.0 0.00 0.00 0.00 92 1008.7
20260506092504 75 169 3.0 10.0 0.00 0.00 0.00 92 1008.4
20260506092003 75 170 3.0 10.0 0.00 0.00 0.00 92 1008.5
20260506091503 75 184 3.0 7.0 0.00 0.00 0.00 92 1008.5
20260506091004 75 176 2.0 8.0 0.00 0.00 0.00 92 1008.5
20260506090503 75 173 3.0 8.0 0.00 0.00 0.00 92 1008.5
20260506090003 75 181 2.0 8.0 0.00 0.00 0.00 92 1008.7
20260506085503 75 183 2.0 8.0 0.00 0.00 0.00 92 1008.7
20260506084504 75 185 3.0 8.0 0.00 0.00 0.00 92 1008.7
20260506084003 75 174 4.0 9.0 0.00 0.00 0.00 92 1008.6
20260506083503 75 169 3.0 9.0 0.00 0.00 0.00 92 1008.7
20260506083003 75 179 3.0 9.0 0.00 0.00 0.00 92 1008.6
20260506082503 75 189 3.0 10.0 0.00 0.00 0.00 92 1008.7
20260506082003 75 205 3.0 10.0 0.00 0.00 0.00 92 1008.7
20260506081503 75 190 2.0 8.0 0.00 0.00 0.00 92 1008.6
20260506081004 75 171 2.0 8.0 0.00 0.00 0.00 92 1008.7
20260506080503 75 176 3.0 13.0 0.00 0.00 0.00 92 1008.6
20260506073503 75 171 4.0 10.0 0.00 0.00 0.00 92 1009.0
20260506073003 75 172 3.0 8.0 0.00 0.00 0.00 92 1009.0
20260506072504 75 170 3.0 9.0 0.00 0.00 0.00 92 1009.1
20260506072213 75 168 3.0 9.0 0.00 0.00 0.00 92 1009.1
20260506071503 75 169 3.0 10.0 0.00 0.00 0.00 92 1009.1
20260506071214 75 165 3.0 10.0 0.00 0.00 0.00 92 1009.1
20260506062503 75 192 2.0 8.0 0.00 0.00 0.00 93 1009.4
20260506062003 75 177 2.0 8.0 0.00 0.00 0.00 93 1009.4
20260506061716 75 172 2.0 8.0 0.00 0.00 0.00 93 1009.4
20260506061003 75 151 3.0 7.0 0.00 0.00 0.00 92 1009.3
20260506060215 75 177 2.0 6.0 0.00 0.00 0.00 92 1009.4
20260506051003 76 146 3.0 8.0 0.00 0.00 0.00 92 1009.4
20260506050503 76 144 3.0 7.0 0.00 0.00 0.00 92 1009.2
20260506045003 76 157 3.0 7.0 0.00 0.00 0.00 92 1009.1
20260506044503 76 154 3.0 8.0 0.00 0.00 0.00 92 1009.0
20260506044004 76 129 3.0 8.0 0.00 0.00 0.00 92 1009.2
20260506043503 76 121 3.0 9.0 0.00 0.00 0.00 92 1009.2
20260506042504 76 103 2.0 8.0 0.00 0.00 0.00 91 1009.1
20260506042003 76 120 3.0 6.0 0.00 0.00 0.00 91 1009.2
20260506041503 76 150 3.0 8.0 0.00 0.00 0.00 91 1009.2
20260506041216 76 156 3.0 8.0 0.00 0.00 0.00 91 1009.2
20260506040503 76 154 2.0 6.0 0.00 0.00 0.00 91 1008.9
20260506040217 76 154 2.0 6.0 0.00 0.00 0.00 91 1008.9
20260506035504 76 146 3.0 7.0 0.00 0.00 0.00 91 1008.9
20260506035004 76 138 3.0 8.0 0.00 0.00 0.00 91 1008.8
20260506034003 76 138 3.0 11.0 0.00 0.00 0.00 90 1008.8
20260506033503 77 145 4.0 11.0 0.00 0.00 0.00 90 1008.7
20260506032503 77 142 3.0 10.0 0.00 0.00 0.00 90 1008.4
20260506032004 77 144 3.0 10.0 0.00 0.00 0.00 89 1008.3
20260506031504 77 158 3.0 11.0 0.00 0.00 0.00 89 1008.3
20260506031003 77 161 4.0 11.0 0.00 0.00 0.00 89 1008.3
20260506030503 77 155 3.0 7.0 0.00 0.00 0.00 89 1008.1
20260506030003 78 145 3.0 9.0 0.00 0.00 0.00 88 1008.1
20260506025503 78 143 4.0 9.0 0.00 0.00 0.00 88 1008.1
20260506025213 78 142 4.0 10.0 0.00 0.00 0.00 88 1008.1
20260506024504 78 149 4.0 12.0 0.00 0.00 0.00 87 1007.8
20260506024004 78 146 4.0 12.0 0.00 0.00 0.00 87 1007.7
20260506023504 79 144 3.0 8.0 0.00 0.00 0.00 87 1007.6
20260506023003 79 146 3.0 10.0 0.00 0.00 0.00 86 1007.5
20260506022713 79 143 3.0 10.0 0.00 0.00 0.00 86 1007.5
20260506022003 80 128 3.0 9.0 0.00 0.00 0.00 85 1007.4
20260506021503 80 126 3.0 9.0 0.00 0.00 0.00 84 1007.3
20260506021217 80 130 3.0 8.0 0.00 0.00 0.00 84 1007.4
20260506020504 80 127 3.0 7.0 0.00 0.00 0.00 83 1007.5
20260506020004 80 124 3.0 8.0 0.00 0.00 0.00 83 1007.5
20260506015716 80 118 3.0 8.0 0.00 0.00 0.00 82 1007.4
20260506015003 81 110 1.0 8.0 0.00 0.00 0.00 82 1007.3
20260506014503 81 120 1.0 6.0 0.00 0.00 0.00 81 1007.2
20260506014003 81 120 1.0 3.0 0.00 0.00 0.00 81 1007.1
20260506013503 81 120 1.0 3.0 0.00 0.00 0.00 81 1007.0
20260506012714 81 120 1.0 3.0 0.00 0.00 0.00 81 1006.9
20260506012004 82 120 1.0 4.0 0.00 0.00 0.00 80 1006.9
20260506011504 82 120 2.0 4.0 0.00 0.00 0.00 80 1006.8
20260506011003 82 122 2.0 4.0 0.00 0.00 0.00 79 1006.7
20260506010503 82 123 1.0 4.0 0.00 0.00 0.00 79 1006.8
20260506010003 82 123 1.0 4.0 0.00 0.00 0.00 79 1006.7
20260506005717 82 123 1.0 4.0 0.00 0.00 0.00 79 1006.7
20260506005214 83 123 1.0 3.0 0.00 0.00 0.00 79 1006.6
20260506004504 83 123 2.0 4.0 0.00 0.00 0.00 78 1006.5
20260506003503 83 124 1.0 4.0 0.00 0.00 0.00 77 1006.5
20260506003003 84 126 2.0 4.0 0.00 0.00 0.00 77 1006.4
20260506002212 84 128 2.0 5.0 0.00 0.00 0.00 76 1006.4
20260506001503 85 131 2.0 5.0 0.00 0.00 0.00 75 1006.4
20260506000504 85 145 2.0 5.0 0.00 0.00 0.00 74 1006.4
20260506000004 85 150 2.0 5.0 0.00 0.00 0.00 74 1006.3
20260505235503 86 150 2.0 5.0 0.00 0.00 0.00 74 1006.2
20260505235003 86 152 2.0 5.0 0.00 0.00 0.00 74 1006.3
20260505234713 86 152 2.0 5.0 0.00 0.00 0.00 73 1006.3
20260505234003 86 187 2.0 5.0 0.00 0.00 0.00 73 1006.1
20260505233503 86 176 2.0 6.0 0.00 0.00 0.00 73 1006.2
20260505233217 86 151 2.0 6.0 0.00 0.00 0.00 71 1006.1
20260505232504 86 118 2.0 4.0 0.00 0.00 0.00 72 1006.2
20260505232003 86 108 2.0 4.0 0.00 0.00 0.00 72 1006.1
20260505231716 86 107 2.0 7.0 0.00 0.00 0.00 72 1006.1
20260505231003 86 135 3.0 7.0 0.00 0.00 0.00 72 1006.0
20260505230503 85 139 2.0 7.0 0.00 0.00 0.00 72 1006.0
20260505230003 86 131 2.0 7.0 0.00 0.00 0.00 71 1006.0
20260505225713 86 121 3.0 9.0 0.00 0.00 0.00 72 1006.0
20260505225003 86 134 3.0 9.0 0.00 0.00 0.00 71 1006.0
20260505224504 86 162 2.0 7.0 0.00 0.00 0.00 72 1006.2
20260505223503 86 180 2.0 6.0 0.00 0.00 0.00 71 1006.1
20260505223003 86 187 2.0 7.0 0.00 0.00 0.00 73 1006.1
20260505222003 86 183 2.0 8.0 0.00 0.00 0.00 72 1006.2
20260505221503 86 181 3.0 9.0 0.00 0.00 0.00 72 1006.2
20260505221003 86 165 3.0 9.0 0.00 0.00 0.00 71 1006.3
20260505220504 85 159 3.0 8.0 0.00 0.00 0.00 72 1006.3
20260505220004 85 159 3.0 6.0 0.00 0.00 0.00 73 1006.3
20260505215713 85 165 3.0 7.0 0.00 0.00 0.00 73 1006.4
20260505215003 85 176 3.0 7.0 0.00 0.00 0.00 72 1006.5
20260505214503 85 181 3.0 10.0 0.00 0.00 0.00 73 1006.6
20260505213503 85 158 3.0 10.0 0.00 0.00 0.00 72 1006.8
20260505212504 86 187 3.0 8.0 0.00 0.00 0.00 71 1006.8
20260505212214 86 205 2.0 8.0 0.00 0.00 0.00 71 1006.9
20260505211717 86 194 3.0 7.0 0.00 0.00 0.00 72 1007.0
20260505211004 85 181 2.0 9.0 0.00 0.00 0.00 73 1007.0
20260505210503 85 190 2.0 8.0 0.00 0.00 0.00 73 1007.1
20260505210216 85 183 2.0 8.0 0.00 0.00 0.00 72 1007.2
20260505205503 85 166 3.0 8.0 0.00 0.00 0.00 73 1007.4
20260505205004 85 172 3.0 8.0 0.00 0.00 0.00 72 1007.3
20260505204504 85 163 4.0 8.0 0.00 0.00 0.00 73 1007.5
20260505204004 85 157 4.0 8.0 0.00 0.00 0.00 73 1007.5
20260505203503 85 180 3.0 7.0 0.00 0.00 0.00 72 1007.5
20260505203214 85 209 3.0 7.0 0.00 0.00 0.00 71 1007.7
20260505202503 85 221 3.0 11.0 0.00 0.00 0.00 73 1007.9
20260505202003 85 180 3.0 11.0 0.00 0.00 0.00 73 1007.9
20260505201503 85 166 3.0 9.0 0.00 0.00 0.00 73 1007.8
20260505201003 85 168 3.0 7.0 0.00 0.00 0.00 73 1007.9
20260505200217 84 160 4.0 10.0 0.00 0.00 0.00 74 1008.0
20260505195503 84 172 3.0 8.0 0.00 0.00 0.00 72 1008.1
20260505195003 84 202 2.0 6.0 0.00 0.00 0.00 73 1008.1
20260505194003 84 205 3.0 8.0 0.00 0.00 0.00 74 1008.3
20260505193717 84 208 3.0 8.0 0.00 0.00 0.00 74 1008.4
20260505193003 84 177 3.0 9.0 0.00 0.00 0.00 75 1008.5
20260505192717 84 179 3.0 9.0 0.00 0.00 0.00 75 1008.4
20260505192004 84 191 3.0 8.0 0.00 0.00 0.00 75 1008.5
20260505191504 83 214 3.0 10.0 0.00 0.00 0.00 77 1008.5
20260505191216 83 243 3.0 10.0 0.00 0.00 0.00 76 1008.7
20260505190714 83 250 3.0 10.0 0.00 0.00 0.00 76 1008.8
20260505190003 82 229 3.0 7.0 0.00 0.00 0.00 77 1008.9
20260505185503 82 205 3.0 6.0 0.00 0.00 0.00 78 1009.0
20260505185003 82 225 3.0 7.0 0.00 0.00 0.00 77 1009.0
20260505184504 81 243 3.0 7.0 0.00 0.00 0.00 78 1009.1
20260505184004 81 245 3.0 10.0 0.00 0.00 0.00 80 1009.3
20260505183504 81 247 3.0 10.0 0.00 0.00 0.00 79 1009.1
20260505183003 81 240 3.0 8.0 0.00 0.00 0.00 79 1009.3
20260505182503 81 232 3.0 9.0 0.00 0.00 0.00 79 1009.3
20260505182003 80 220 3.0 9.0 0.00 0.00 0.00 79 1009.4
20260505181503 80 200 3.0 7.0 0.00 0.00 0.00 80 1009.4
20260505181003 80 223 3.0 10.0 0.00 0.00 0.00 80 1009.4
20260505180504 80 243 3.0 10.0 0.00 0.00 0.00 80 1009.4
20260505175504 79 246 4.0 9.0 0.00 0.00 0.00 82 1009.4
20260505175214 79 242 3.0 9.0 0.00 0.00 0.00 83 1009.3
20260505174003 78 247 3.0 8.0 0.00 0.00 0.00 84 1009.4
20260505173503 78 241 3.0 8.0 0.00 0.00 0.00 84 1009.5
20260505173003 78 239 3.0 9.0 0.00 0.00 0.00 84 1009.6
20260505172503 78 239 2.0 9.0 0.00 0.00 0.00 84 1009.6
20260505172004 77 243 2.0 8.0 0.00 0.00 0.00 85 1009.7
20260505171504 77 241 3.0 9.0 0.00 0.00 0.00 85 1009.7
20260505171003 77 238 3.0 9.0 0.00 0.00 0.00 85 1009.6
20260505170004 76 244 2.0 5.0 0.00 0.00 0.00 87 1009.6
20260505165503 76 241 2.0 7.0 0.00 0.00 0.00 88 1009.5
20260505165003 75 232 3.0 9.0 0.00 0.00 0.00 88 1009.5
20260505164503 75 233 3.0 9.0 0.00 0.00 0.00 88 1009.6
20260505164003 75 229 3.0 10.0 0.00 0.00 0.00 89 1009.5
20260505163713 75 214 3.0 10.0 0.00 0.00 0.00 89 1009.6
20260505163004 74 205 2.0 5.0 0.00 0.00 0.00 91 1009.7
20260505162503 74 240 2.0 5.0 0.00 0.00 0.00 91 1009.6
20260505162003 74 236 2.0 8.0 0.00 0.00 0.00 92 1009.6
20260505161503 73 228 3.0 8.0 0.00 0.00 0.00 91 1009.7
20260505161213 73 231 3.0 8.0 0.00 0.00 0.00 91 1009.7
20260505160503 73 239 2.0 7.0 0.00 0.00 0.00 91 1009.6